星链-30145 (STARLINK-30145 )

导读

STARLINK-30145是美国太空探索技术公司SpaceX星链卫星互联网项目的组网卫星,于2023年8月7日发射,加入星链低轨卫星星座,为全球提供高速互联网接入服务,尤其服务偏远地区、移动载体等场景,助力星链完成全球卫星互联网组网布局。

基本信息
目录编号:
57496
目录名称:
STARLINK-30145
国际标识:
2023-113B
轨道中心:
EARTH
卫星名称:
星链-30145
卫星全名:
星链-30145 (STARLINK-30145 )
卫星状态:
在轨 (已飞行1043 天)
发射日期:
2023-08-07 UTC
国别 :
美国 (US)
星等 :
--
轨道信息
数据来源 国际轨道数据 AOE轨道数据
星历时间 2026-06-15T02:42:30+0800
11小时前
查看轨道信息
2026-06-15T05:00:00+0800
8小时前
查看轨道信息
半长轴 6861.208km 6861.19km
偏心率 0.0002077 0.0002643
轨道倾角 43.012° 43.005°
近地点辐角 269.371° 227.399°
升交点赤经 187.773° 187.234°
平近点角 90.691° 298.433°
近地点 481.645km 481.239km
远地点 484.497km 484.867km
周期 94.267分钟 94.267分钟
每日圈数 15.275728 15.27579
详细信息
固有亮度:
5
最大亮度:
0.3
卫星平台:
Starlink v2.0 mini
覆盖范围:
全球
运营商:
太空探索技术公司
运营商所在国:
美国
制造商(研发单位):
太空探索技术公司
制造商所在国:
美国
使用方式:
暂无
卫星简介
星链(Starlink)计划是由太空探索技术公司(SpaceX)提出的一个巨型低轨卫星互联网星座项目,计划在2019年至2024年间在太空搭建由约1.2万颗卫星组成的“星链”网络,其中1584颗将部署在地球上空550千米处的近地轨道,并从2020年开始工作。该卫星仍在工作。
2D轨道图
3D轨道图
轨道高度分析图
轨道倾角分析图
轨道综合分析图
查看轨道综合分析图